RH
43 33 48 71 69 55 58 93 75 100 72 68 84 100 93 75 70 64 60 50 51 36 28 24 18 17 17 17 16 17 16 20 27 23 17 16 15 18 19 21 26 29 34 33
39 54 82 59 52 60 70 99 88 100 77 72 91 94 78 58 87 68 54 56 45 24 23 19 18 17 17 17 16 15 15 18 22 28 20 21 20 19 19 19 22 25 28 39
66 78 85 62 51 66 82 89 89 100 80 90 92 91 89 66 88 70 54 45 40 21 20 17 17 16 17 18 16 16 16 16 16 24 25 22 22 21 22 18 22 30 29 50
79 86 63 75 68 88 87 100 100 100 61 90 95 85 78 82 84 60 46 38 35 21 18 17 17 16 16 17 18 16 16 18 15 16 22 22 22 24 26 20 22 25 39 45
79 69 66 85 63 98 94 100 100 83 70 87 87 85 76 63 56 43 40 35 27 20 16 16 17 16 14 16 17 16 15 17 17 20 16 18 24 24 21 22 23 25 41 34
81 70 73 61 82 97 99 100 100 65 99 74 95 96 67 62 54 43 36 25 23 18 15 15 14 13 12 11 13 13 15 14 14 22 22 17 17 21 22 19 22 20 25 35
86 89 58 66 96 100 100 100 94 74 82 95 94 72 77 66 55 39 28 19 18 15 13 12 11 10 11 11 11 10 11 10 11 13 15 24 22 16 17 20 19 20 20 27
94 58 66 89 99 100 100 94 59 100 86 97 98 81 64 57 36 28 18 16 15 12 10 10 10 11 11 9 10 9 9 9 10 11 11 14 19 20 17 15 18 21 22 22
72 82 94 93 100 99 100 71 82 83 98 94 78 75 63 40 33 19 17 15 11 9 9 9 9 10 9 10 10 9 8 8 9 10 9 12 17 13 17 17 17 15 16 19
87 89 98 100 98 99 99 89 76 94 100 82 75 56 48 34 18 16 15 12 10 9 8 9 9 9 8 8 8 7 7 8 8 8 8 11 16 12 9 11 15 12 12 14
96 96 91 100 99 92 100 75 92 83 94 83 76 51 36 28 15 14 11 9 8 9 9 9 8 8 8 8 6 6 6 6 7 8 9 11 10 10 8 7 10 17 15 14
96 88 100 91 95 100 86 87 84 98 69 76 52 40 30 17 15 11 9 8 8 8 8 7 8 7 6 4 4 4 4 4 5 5 5 8 9 10 8 8 9 10 11 17
97 97 98 100 98 88 97 82 82 69 57 76 49 34 29 16 13 9 9 9 8 7 7 7 6 4 3 4 4 5 4 4 4 4 4 5 7 9 9 8 9 10 10 11
79 88 100 97 100 92 76 84 69 47 47 47 43 33 18 15 10 9 8 9 8 7 6 5 4 4 4 5 5 5 5 4 4 4 4 4 5 6 8 10 10 10 10 11
95 100 96 100 90 79 84 75 57 53 45 37 34 21 15 12 9 9 9 9 7 6 4 4 4 4 5 5 5 4 4 4 5 4 4 4 4 5 6 7 8 9 9 8
100 100 91 89 77 78 65 51 57 59 42 32 32 16 13 9 8 8 9 8 6 4 4 4 4 5 5 6 6 5 4 4 4 5 6 6 4 4 5 4 5 6 7 7
98 94 87 72 72 73 63 49 52 34 32 28 16 15 10 9 8 8 8 6 4 5 5 5 5 6 6 6 6 6 5 5 5 5 4 4 5 4 5 5 4 4 4 5
96 96 75 73 82 60 55 48 35 33 32 16 15 11 10 9 9 9 7 4 5 5 5 6 6 6 6 6 7 7 7 6 6 6 5 4 4 4 5 5 4 4 4 4
99 81 78 65 69 46 46 43 39 37 18 15 11 9 9 9 9 8 5 5 5 5 6 6 6 6 7 8 9 9 8 7 8 9 8 6 4 4 4 4 4 4 4 4
91 82 69 60 51 36 35 36 36 20 17 12 9 9 9 9 8 6 5 6 6 7 7 7 7 8 9 9 8 8 7 7 8 8 8 8 6 6 5 5 6 5 5 6
84 78 75 45 33 33 37 27 18 17 13 10 9 9 9 8 7 6 6 6 7 8 9 9 8 9 10 10 10 10 10 10 10 9 7 7 8 7 6 6 6 6 6 5
78 79 51 37 30 36 20 16 15 12 10 10 10 9 8 7 6 6 7 7 8 10 10 10 10 11 11 11 12 13 10 9 8 10 10 9 9 10 10 8 5 6 6 6
63 48 35 30 37 23 17 16 12 10 10 10 8 8 7 6 6 7 8 9 10 10 11 12 13 12 12 11 12 13 14 12 9 8 8 8 9 9 9 8 7 7 8 7
43 36 32 37 23 16 16 11 10 10 10 8 7 6 6 6 8 8 10 10 12 12 13 14 13 12 12 15 15 12 12 12 11 10 10 9 9 10 9 8 8 7 7 7
34 32 36 25 17 15 11 10 10 10 8 6 6 6 7 8 8 10 12 13 13 14 15 13 15 14 18 14 14 15 17 15 14 13 12 12 10 10 10 10 9 9 9 9
36 32 20 18 14 10 10 10 9 7 5 5 6 6 8 9 8 12 14 17 15 15 15 15 16 20 14 16 14 16 17 15 14 14 14 14 12 13 13 12 12 11 11 11
20 17 16 12 10 10 10 8 6 5 5 6 6 8 10 8 9 14 17 17 17 19 17 21 21 22 19 18 17 18 19 18 16 18 18 18 16 18 15 14 14 14 14 13
Wind_Speed
68 70 74 76 82 86 88 84 92 95 101 104 104 104 112 121 125 129 135 136 142 126 108 88 75 67 62 60 55 52 48 42 45 50 54 49 50 51 52 50 50 51 53 59
71 73 75 80 85 88 90 88 94 97 104 108 106 109 116 123 125 128 138 146 143 117 101 84 73 65 61 62 56 49 48 43 42 49 52 52 50 53 53 52 53 54 55 60
74 78 80 85 89 92 93 94 96 102 108 107 109 114 122 130 130 136 145 146 137 110 95 85 73 66 61 62 60 53 45 45 43 45 52 54 53 52 54 53 50 55 53 61
78 82 85 88 93 97 99 100 100 107 114 112 116 120 130 133 136 139 146 151 132 108 89 83 80 72 62 59 59 55 47 44 45 48 51 54 54 54 57 55 56 52 64 62
80 88 89 91 97 99 103 101 107 113 116 117 121 127 133 135 139 144 160 144 127 108 93 82 74 70 67 56 58 57 53 45 48 52 53 52 56 59 59 59 58 57 62 67
85 92 92 96 100 102 103 105 111 121 117 122 126 133 139 138 151 153 167 132 117 105 93 81 74 67 63 59 55 56 56 56 50 50 57 55 58 60 61 63 63 59 62 66
92 92 98 98 102 104 105 109 117 121 122 126 133 140 140 148 154 170 147 118 109 100 89 77 71 66 62 62 59 55 56 58 57 53 55 59 64 60 64 66 65 65 63 65
94 100 101 101 104 107 111 115 123 119 125 128 133 142 148 156 162 153 128 113 106 94 84 71 67 67 68 66 60 57 54 56 55 55 58 57 64 65 61 64 67 69 69 68
98 103 102 106 108 115 117 122 123 128 127 134 144 147 153 162 164 128 118 111 100 90 83 76 69 67 63 62 64 60 56 54 54 54 54 54 60 61 65 64 68 72 71 70
104 105 107 111 116 118 124 125 130 131 134 141 148 156 162 173 138 122 113 102 93 87 82 76 73 71 65 62 59 56 55 53 54 53 53 51 57 62 65 67 66 67 68 69
107 109 114 116 120 123 126 133 132 138 141 146 153 161 165 159 130 116 105 95 89 84 79 76 72 70 67 64 61 52 55 52 53 52 54 56 60 57 56 55 61 70 71 71
109 114 117 123 123 127 131 136 140 142 147 152 160 169 171 143 127 110 101 94 88 83 75 70 68 68 65 60 56 44 45 45 50 46 49 48 56 54 55 52 54 60 64 71
114 119 121 123 128 132 137 141 145 149 150 154 164 172 163 133 118 105 98 95 89 83 75 71 67 63 58 52 46 42 37 37 40 40 35 43 48 51 53 51 50 53 60 63
118 122 126 130 132 135 143 145 152 158 162 162 171 172 139 124 110 100 92 89 84 76 73 67 59 55 47 43 41 38 37 34 36 35 34 39 40 42 46 52 53 52 54 58
121 126 129 134 136 141 146 149 157 161 167 173 176 151 128 114 103 93 90 85 79 74 64 57 52 48 44 40 37 35 34 34 35 33 33 36 33 34 40 48 51 51 53 54
126 128 134 136 142 147 149 154 161 165 174 178 163 133 119 108 96 89 83 79 74 65 57 51 47 43 41 38 36 33 31 29 29 28 28 29 32 31 33 39 45 48 53 56
128 133 138 143 147 152 155 164 164 173 173 163 136 122 111 102 94 85 80 74 65 58 53 47 43 39 36 34 33 31 29 26 23 25 26 25 27 28 30 37 41 43 44 47
133 137 142 146 149 156 160 165 174 174 171 141 126 112 102 96 87 81 76 66 58 53 47 42 39 36 32 30 28 30 29 24 22 22 25 25 23 26 26 29 33 35 35 35
137 143 144 150 155 161 168 171 174 175 144 130 114 103 94 88 81 75 67 58 52 47 41 38 36 33 30 27 25 26 27 23 19 20 23 25 23 21 21 23 26 28 29 29
142 146 153 154 160 169 173 173 176 146 133 120 108 99 89 83 76 68 58 52 46 41 38 36 33 30 27 26 25 23 22 20 18 17 17 20 20 18 17 17 18 17 18 22
146 151 155 162 165 169 177 159 137 128 118 108 100 91 85 77 69 59 52 46 41 38 34 32 29 26 25 24 24 24 23 22 19 18 15 13 18 20 17 12 13 16 17 17
150 153 163 164 169 174 150 135 125 115 106 101 92 84 76 70 61 52 47 41 39 36 32 29 26 26 25 23 22 20 17 16 14 14 14 14 14 15 17 17 13 10 11 13
156 162 167 170 171 151 134 125 115 106 99 93 84 75 69 61 52 46 41 38 36 32 29 26 26 24 23 19 15 12 12 12 12 11 10 10 9 9 12 14 12 9 10 12
162 168 164 170 150 134 124 113 104 98 91 84 75 68 60 52 45 41 37 35 31 29 27 27 24 21 17 15 12 10 9 10 10 9 10 9 6 4 5 5 6 8 8 10
169 171 170 150 133 121 112 104 97 91 84 76 66 57 50 44 40 36 33 32 29 26 26 23 20 18 15 12 7 9 10 10 10 9 10 8 6 4 2 1 4 5 6 8
172 156 138 130 119 110 103 96 91 84 75 65 55 47 42 39 35 31 30 29 26 25 23 20 18 15 11 11 11 12 12 10 10 11 11 9 7 5 3 3 4 5 8 11
142 132 123 114 107 102 96 89 83 74 63 53 45 39 37 35 31 28 27 26 23 22 20 18 17 13 10 10 12 14 13 11 11 11 10 7 6 5 4 6 6 9 10 12
Wind_Direction
322 327 328 330 328 334 336 333 334 334 336 334 337 336 334 336 337 336 336 337 337 334 330 326 319 315 309 302 299 294 288 283 278 276 274 269 263 259 256 254 251 248 247 250
323 325 328 328 330 333 334 331 332 331 332 335 334 332 334 332 334 335 334 336 335 330 328 323 318 314 309 302 298 292 288 283 274 269 271 269 263 259 254 249 247 247 245 244
323 323 324 327 330 331 332 329 329 330 332 334 330 331 331 332 332 333 335 335 333 329 327 322 317 313 308 302 297 292 286 281 274 268 268 263 262 259 257 252 246 243 244 240
320 321 324 326 328 329 329 327 328 329 329 331 330 329 331 334 330 333 332 333 329 327 325 321 318 314 309 302 297 292 285 278 271 263 258 263 261 256 254 250 243 239 240 237
319 324 327 325 327 326 327 325 326 326 329 330 327 329 332 331 333 334 332 330 327 324 322 320 318 313 308 302 298 293 288 275 270 266 260 255 256 254 254 254 248 240 239 242
321 325 324 324 324 325 326 324 325 326 327 327 327 328 330 331 332 333 330 327 326 321 320 320 317 312 306 302 296 291 286 280 269 263 265 262 252 254 253 252 251 245 241 242
320 321 322 322 323 323 323 323 324 326 325 326 327 329 329 328 328 327 326 326 324 319 319 319 315 310 305 299 295 290 283 278 276 267 259 257 257 250 252 252 252 250 245 241
318 318 320 320 321 321 319 321 325 324 325 325 327 328 326 328 328 328 326 325 321 320 317 316 313 308 305 301 296 290 284 280 275 269 266 259 256 255 249 251 253 250 248 244
314 317 319 318 320 320 319 321 324 324 324 324 325 325 328 327 327 327 325 323 320 321 318 316 313 307 303 298 296 292 286 282 277 273 265 260 257 257 253 248 245 248 249 249
314 316 316 317 318 318 318 321 324 322 323 324 326 325 325 328 328 326 325 321 320 320 319 317 312 308 306 301 295 290 288 281 279 273 269 263 254 252 250 247 245 249 249 247
314 316 315 316 317 317 318 320 321 323 323 325 322 323 327 330 326 325 323 322 322 320 318 314 312 309 305 300 293 294 287 282 275 267 262 255 255 256 258 253 248 242 245 246
313 313 314 314 316 316 318 319 320 321 322 321 324 325 327 328 325 324 323 323 322 319 318 315 312 307 303 300 301 297 289 283 275 271 266 259 259 255 257 255 249 250 246 246
311 312 313 314 315 316 317 319 319 320 322 322 324 326 328 326 325 324 324 322 322 319 318 314 311 309 307 309 306 300 288 281 278 273 265 259 252 252 255 256 252 246 247 246
311 312 312 313 313 315 317 318 319 320 320 324 324 327 327 326 324 324 323 321 319 317 316 315 313 311 312 306 302 297 291 284 275 272 267 260 252 248 246 249 249 248 247 246
311 310 311 311 314 316 316 318 319 319 322 323 326 327 326 325 324 323 323 320 319 317 317 314 314 311 309 305 301 297 293 288 281 276 269 266 262 253 247 245 246 246 248 246
309 310 310 313 314 315 315 318 317 320 321 325 326 325 325 325 324 324 322 321 319 318 317 316 313 311 310 309 306 302 298 293 288 280 270 264 262 254 249 248 245 241 241 244
308 308 312 313 314 314 317 317 319 322 324 325 325 325 324 324 324 325 323 321 320 319 318 317 315 315 313 310 306 302 296 291 286 283 278 271 267 260 248 247 247 246 243 245
306 310 311 313 313 316 316 318 320 323 324 324 324 324 325 324 325 324 323 321 320 320 321 319 319 318 315 310 307 301 297 294 290 285 282 278 271 269 264 257 256 256 252 247
308 309 311 312 313 315 316 318 320 322 322 321 323 323 325 324 324 323 321 320 322 322 322 322 320 318 317 314 309 301 299 300 297 288 283 282 281 280 274 269 265 261 258 254
307 309 309 311 313 315 316 319 319 320 320 321 322 323 325 325 324 322 321 322 323 323 325 323 322 320 317 312 311 308 309 309 304 295 286 287 288 283 274 264 268 271 264 253
307 308 309 311 314 316 319 319 321 319 320 320 322 324 324 323 322 321 322 323 324 325 326 324 321 320 317 319 318 315 315 314 309 303 297 279 276 285 292 289 265 251 245 243
306 308 308 312 314 318 319 319 319 319 320 320 322 322 322 322 321 321 322 324 325 326 324 321 322 321 319 317 313 305 303 302 296 287 285 282 274 270 276 274 264 257 248 236
306 307 309 313 317 317 317 317 318 319 321 320 321 321 320 320 320 320 323 323 323 323 322 324 323 320 315 311 310 313 317 316 311 299 293 289 283 267 261 262 260 248 224 221
306 308 313 315 316 316 316 317 318 318 320 320 320 319 318 318 319 320 322 322 323 321 324 322 317 316 313 317 329 324 337 334 326 318 319 329 326 299 272 256 230 221 213 207
309 311 313 313 314 314 315 316 318 318 319 318 318 317 316 316 318 320 320 321 321 321 319 319 318 318 324 327 351 357 2 348 342 344 353 4 12 15 31 136 203 202 180 183
310 312 312 312 313 314 315 316 317 318 317 316 316 315 314 314 316 317 317 320 319 318 319 320 323 328 339 349 11 7 11 8 9 13 15 21 35 54 55 102 129 138 148 161
310 310 311 311 312 313 314 316 316 316 315 314 314 314 312 312 316 315 316 317 317 318 320 322 326 338 351 359 18 16 21 28 28 28 29 30 46 56 80 105 121 129 142 155